Weather History for KATL - November, 2012

Change the Weather History Date:

Saturday, November 3, 2012

  Actual Average Record
Temperature  
Mean Temperature 65 °F 58 °F  
Max Temperature 81 °F 68 °F 82 °F (1974)
Min Temperature 49 °F 48 °F 22 °F (1954)
Degree Days  
Heating Degree Days 0 8  
Month to date heating degree days 17 22  
Since 1 July heating degree days 115 151  
Cooling Degree Days 0 1  
Month to date cooling degree days 0 3  
Year to date cooling degree days 2240 1875  
Growing Degree Days 16 (Base 50)    
Moisture  
Dew Point 45 °F    
Average Humidity 52    
Maximum Humidity 71    
Minimum Humidity 33    
Precipitation  
Precipitation 0.00 in 0.12 in 1.54 in (1903)
Month to date precipitation 0.00 0.35  
Year to date precipitation 29.43 42.06  
Snow  
Snow 0.00 in 0.00 in 0.00 in (2001)
Month to date snowfall 0.0 0.0  
Since 1 July snowfall 0.0 0.0  
Since 1 September snowfall 0.0 0.0  
Snow Depth -    
Sea Level Pressure  
Sea Level Pressure 30.04 in    
Wind  
Wind Speed 5 mph (West)    
Max Wind Speed 12 mph    
Max Gust Speed 16 mph    
Visibility 10 miles    
Events      
T = Trace of Precipitation, MM = Missing Value Source: NWS Daily Summary

Daily Weather History Graph

Daily Weather History Graph

Search for Another Location

Airport or City:

Trip Planner

Search our weather history database for the weather conditions in past years. The results will help you decide how hot, cold, wet, or windy it might be!

Date:

Astronomy

Nov. 03, 2012 Rise Set
Actual Time 7:58 AM EDT 6:43 PM EDT
Civil Twilight 7:33 AM EDT 7:09 PM EDT
Nautical Twilight 7:03 AM EDT 7:38 PM EDT
Astronomical Twilight 6:34 AM EDT 8:07 PM EDT
Moon 10:27 PM EDT (11/3) 11:57 AM EDT (11/3)
Length of Visible Light 11h 36m
Length of Day
10h 44m
Waning Gibbous, 80% of the Moon is Illuminated
Nov 3
Waning Gibbous
Nov 6
Last Quarter
Nov 13
New
Nov 20
First Quarter
Nov 28
Full

Hourly Weather History & Observations

Time (EDT) Temp. Dew Point Humidity Pressure Visibility Wind Dir Wind Speed Gust Speed Precip Events Conditions
12:52 AM 57.2 °F 46.4 °F 67% 30.03 in 10.0 mi NW 9.2 mph - N/A   Scattered Clouds
1:52 AM 55.0 °F 45.0 °F 69% 30.02 in 10.0 mi NW 8.1 mph - N/A   Clear
2:52 AM 54.0 °F 44.1 °F 69% 30.02 in 10.0 mi WNW 6.9 mph - N/A   Clear
3:52 AM 53.1 °F 42.1 °F 66% 30.02 in 10.0 mi WNW 5.8 mph - N/A   Clear
4:52 AM 53.1 °F 39.9 °F 61% 30.02 in 10.0 mi WNW 3.5 mph - N/A   Clear
5:52 AM 52.0 °F 37.9 °F 59% 30.04 in 10.0 mi WNW 3.5 mph - N/A   Clear
6:52 AM 50.0 °F 37.9 °F 63% 30.06 in 10.0 mi NW 4.6 mph - N/A   Clear
7:52 AM 51.1 °F 37.0 °F 59% 30.07 in 10.0 mi Calm Calm - N/A   Partly Cloudy
8:52 AM 52.0 °F 39.9 °F 63% 30.10 in 10.0 mi Calm Calm - N/A   Partly Cloudy
9:52 AM 57.9 °F 37.9 °F 47% 30.12 in 10.0 mi WNW 3.5 mph - N/A   Clear
10:52 AM 64.0 °F 39.0 °F 40% 30.12 in 10.0 mi WNW 3.5 mph - N/A   Partly Cloudy
11:52 AM 70.0 °F 39.0 °F 32% 30.11 in 10.0 mi NW 4.6 mph - N/A   Clear
12:52 PM 73.0 °F 44.1 °F 35% 30.09 in 10.0 mi SSW 8.1 mph - N/A   Clear
1:52 PM 78.1 °F 50.0 °F 37% 30.06 in 10.0 mi WNW 9.2 mph - N/A   Clear
2:52 PM 78.1 °F 50.0 °F 37% 30.04 in 10.0 mi WNW 5.8 mph - N/A   Partly Cloudy
3:52 PM 79.0 °F 51.1 °F 38% 30.02 in 10.0 mi Calm Calm - N/A   Partly Cloudy
4:52 PM 79.0 °F 51.1 °F 38% 30.01 in 10.0 mi WSW 6.9 mph - N/A   Partly Cloudy
5:52 PM 79.0 °F 51.1 °F 38% 30.00 in 10.0 mi Variable 4.6 mph - N/A   Partly Cloudy
6:52 PM 73.9 °F 51.1 °F 45% 30.01 in 10.0 mi SW 4.6 mph - N/A   Partly Cloudy
7:52 PM 72.0 °F 50.0 °F 46% 30.01 in 10.0 mi WSW 5.8 mph - N/A   Clear
8:52 PM 71.1 °F 48.9 °F 45% 30.02 in 10.0 mi WSW 5.8 mph - N/A   Clear
9:52 PM 66.0 °F 48.9 °F 54% 30.02 in 10.0 mi WSW 3.5 mph - N/A   Clear
10:52 PM 64.9 °F 50.0 °F 58% 30.02 in 10.0 mi WSW 5.8 mph - N/A   Clear
11:52 PM 64.9 °F 51.1 °F 61% 30.02 in 10.0 mi WSW 6.9 mph - N/A   Clear